Key West, FL

6:55 PM EDT on May 23, 2017 (GMT -0400)
Key West International

Weather History for KEYW - January, 2013

Change the Weather History Date:

Thursday, January 3, 2013

  Actual Average Record
Temperature  
Mean Temperature 76 °F 69 °F  
Max Temperature 80 °F 74 °F 84 °F (1960)
Min Temperature 72 °F 64 °F 45 °F (2008)
Degree Days  
Heating Degree Days 0 1  
Month to date heating degree days 0 3  
Since 1 July heating degree days 4 21  
Cooling Degree Days 11 5  
Month to date cooling degree days 30 17  
Year to date cooling degree days 30 17  
Growing Degree Days 26 (Base 50)    
Moisture  
Dew Point 71 °F    
Average Humidity 84    
Maximum Humidity 94    
Minimum Humidity 74    
Precipitation  
Precipitation 0.00 in 0.06 in 0.71 in (1994)
Month to date precipitation T 0.18  
Year to date precipitation T 0.18  
Snow  
Snow 0.00 in - - ()
Month to date snowfall 0.0  
Since 1 July snowfall 0.0  
Snow Depth 0.00 in    
Sea Level Pressure  
Sea Level Pressure 30.08 in    
Wind  
Wind Speed 5 mph (ESE)    
Max Wind Speed 10 mph    
Max Gust Speed 17 mph    
Visibility 10 miles    
Events      
T = Trace of Precipitation, MM = Missing Value Source: NWS Daily Summary

Daily Weather History Graph

Daily Weather History Graph

Search for Another Location

Airport or City:

Trip Planner

Search our weather history database for the weather conditions in past years. The results will help you decide how hot, cold, wet, or windy it might be!

Date:

Astronomy

Jan. 03, 2013 Rise Set
Actual Time 7:11 AM EST 5:51 PM EST
Civil Twilight 6:47 AM EST 6:16 PM EST
Nautical Twilight 6:18 AM EST 6:44 PM EST
Astronomical Twilight 5:50 AM EST 7:12 PM EST
Moon 11:41 PM EST (1/3) 11:03 AM EST (1/3)
Length of Visible Light 11h 29m
Length of Day
10h 39m
Waning Gibbous, 65% of the Moon is Illuminated
Jan 3
Waning Gibbous
Jan 4
Last Quarter
Jan 11
New
Jan 18
First Quarter
Jan 26
Full

Hourly Weather History & Observations

Time (EST) Temp. Dew Point Humidity Pressure Visibility Wind Dir Wind Speed Gust Speed Precip Events Conditions
12:53 AM 73.0 °F 71.1 °F 93% 30.05 in 10.0 mi East 5.8 mph - N/A   Clear
1:53 AM 72.0 °F 70.0 °F 93% 30.04 in 10.0 mi East 4.6 mph - N/A   Clear
2:53 AM 73.0 °F 70.0 °F 90% 30.04 in 10.0 mi SE 6.9 mph - N/A   Partly Cloudy
3:53 AM 73.0 °F 69.1 °F 87% 30.04 in 10.0 mi ESE 4.6 mph - N/A   Clear
4:53 AM 73.0 °F 69.1 °F 87% 30.05 in 10.0 mi ENE 3.5 mph - N/A   Clear
5:53 AM 72.0 °F 69.1 °F 91% 30.05 in 10.0 mi East 4.6 mph - N/A   Clear
6:53 AM 72.0 °F 69.1 °F 91% 30.07 in 10.0 mi East 3.5 mph - N/A   Clear
7:53 AM 73.0 °F 70.0 °F 90% 30.09 in 10.0 mi ENE 3.5 mph - N/A   Clear
8:53 AM 75.9 °F 70.0 °F 82% 30.11 in 10.0 mi East 6.9 mph - N/A   Scattered Clouds
9:53 AM 77.0 °F 71.1 °F 82% 30.12 in 10.0 mi East 6.9 mph - N/A   Clear
10:53 AM 79.0 °F 70.0 °F 74% 30.11 in 10.0 mi East 6.9 mph - N/A   Clear
11:53 AM 79.0 °F 72.0 °F 79% 30.09 in 10.0 mi SE 6.9 mph - N/A   Clear
1:53 PM 79.0 °F 71.1 °F 77% 30.04 in 10.0 mi SSE 8.1 mph - N/A   Clear
2:53 PM 79.0 °F 71.1 °F 77% 30.04 in 10.0 mi SSE 5.8 mph - N/A   Clear
3:53 PM 79.0 °F 72.0 °F 79% 30.05 in 10.0 mi SSE 4.6 mph - N/A   Partly Cloudy
4:53 PM 78.1 °F 71.1 °F 79% 30.06 in 10.0 mi SE 4.6 mph - N/A   Clear
5:53 PM 77.0 °F 71.1 °F 82% 30.07 in 10.0 mi East 3.5 mph - N/A   Clear
6:53 PM 75.9 °F 72.0 °F 87% 30.09 in 10.0 mi East 3.5 mph - N/A   Clear
7:53 PM 75.0 °F 72.0 °F 90% 30.10 in 10.0 mi East 5.8 mph - N/A   Clear
8:53 PM 75.0 °F 73.0 °F 94% 30.12 in 10.0 mi East 4.6 mph - N/A   Clear
9:53 PM 73.9 °F 72.0 °F 93% 30.13 in 10.0 mi East 5.8 mph - N/A   Clear
10:53 PM 73.9 °F 72.0 °F 93% 30.13 in 10.0 mi East 4.6 mph - N/A   Clear
11:53 PM 73.9 °F 72.0 °F 93% 30.13 in 10.0 mi ENE 3.5 mph - N/A   Clear